Location: Haram ta Haram Freeway
(35.0583°N, 51.4202°E)
Time: 11:33:13
(UTC+03:30)

Envisat - Pass Details

Date: 09 October 2022
Orbit: 763 x 765 km, 98.2° (Epoch: 02 December)

Event Time Altitude Azimuth Distance (km) Brightness Sun altitude
Rises 03:46:48 0° 21° (NNE) 3,235 6.7 -28.9°
Reaches altitude 10° 03:49:15 10° 29° (NNE) 2,305 6.0 -28.4°
Maximum altitude 03:54:00 39° 98° (E) 1,126 4.2 -27.5°
Drops below altitude 10° 03:58:43 10° 167° (SSE) 2,290 5.5 -26.6°
Sets 04:01:08 0° 175° (S) 3,211 6.2 -26.1°
